Location: Oriwa
(40.7500°S, 175.3333°E)
Time: 09:52:46
(UTC+00:00)

CZ-2C R/B - Pass Details

Date: 03 February 2023
Orbit: 666 x 783 km, 98.3° (Epoch: 19 March)

Event Time Altitude Azimuth Distance (km) Brightness Sun altitude
Exits shadow 15:29:53 41° 294° (WNW) 979 2.6 -19.5°
Maximum altitude 15:30:19 42° 279° (W) 963 2.6 -19.5°
Drops below altitude 10° 15:34:45 10° 207° (SSW) 2,143 5.0 -18.9°
Sets 15:37:08 0° 200° (SSW) 3,078 5.9 -18.5°
